Location: Colle Santa Colomba
(42.0333°N, 12.5667°E)
Time: 22:03:07
(UTC+00:00)

Cosmos 2228 - Pass Details

Date: 25 October 2021
Orbit: 587 x 619 km, 82.5° (Epoch: 05 December)

Event Time Altitude Azimuth Distance (km) Brightness Sun altitude
Rises 18:28:53 0° 202° (SSW) 2,872 6.7 -25.8°
Reaches altitude 10° 18:31:10 10° 208° (SSW) 1,975 5.9 -26.3°
Maximum altitude 18:35:22 45° 282° (WNW) 841 4.1 -27.0°
Drops below altitude 10° 18:39:37 10° 356° (N) 1,993 5.8 -27.8°
Sets 18:41:57 0° 2° (N) 2,903 6.6 -28.2°
